Location: ??????
(38.1303°N, 24.0039°E)
Time: 16:25:44
(UTC+00:00)

Dummy Sat-01 - Pass Details

Date: 20 June 2021
Orbit: 504 x 518 km, 86.3° (Epoch: 27 July)

Event Time Altitude Azimuth Distance (km) Brightness Sun altitude
Exits shadow 00:38:33 75° 188° (S) 532 4.5 -21.0°
Maximum altitude 00:38:50 88° 265° (W) 517 4.5 -20.9°
Drops below altitude 10° 00:42:39 10° 2° (N) 1,742 8.2 -20.5°
Sets 00:44:47 0° 3° (N) 2,636 9.3 -20.3°
